Simultaneous Nadir Overpasses (SNOs) Predictions

Prediction of SNOs between NOAA-19 and TERRA Satellite Orbit:

Table of predicted SNOs for the next 14.0 days since TLE Epoch: 11/23/2013
Index Date (NOAA-19) Time (NOAA-19) Lat,Lon (NOAA-19) SZA (NOAA-19 ) Date (TERRA) Time (TERRA) Lat,Lon (TERRA) SZA (TERRA ) Distance(km) Time Diff (sec)
1 11/23/2013 20:01:16 -69.95, 60.16 89.62 11/23/2013 20:02:14 -69.94, 60.08 89.63 3.16 58
2 11/23/2013 20:52:12 69.85,-132.43 90.29 11/23/2013 20:51:41 69.84,-132.42 90.28 0.77 31
3 11/26/2013 00:45:26 -70.00, -10.94 89.14 11/26/2013 00:46:32 -69.99, -10.94 89.16 2.00 66
4 11/26/2013 01:36:21 69.85, 156.56 90.72 11/26/2013 01:36:00 69.83, 156.49 90.69 3.36 21
5 11/28/2013 05:29:37 -70.12, -82.15 88.63 11/28/2013 05:30:49 -70.06, -81.91 88.68 11.30 72
6 11/28/2013 06:20:31 69.91, 85.44 91.18 11/28/2013 06:20:17 69.91, 85.52 91.17 2.97 14
7 11/30/2013 10:13:52 -70.47,-153.71 87.93 11/30/2013 10:15:02 -70.34,-152.58 88.03 44.49 70
8 11/30/2013 11:04:39 69.88, 14.47 91.51 11/30/2013 11:04:35 69.91, 14.44 91.53 2.77 4
9 11/30/2013 11:55:27 -68.94,-176.92 89.40 11/30/2013 11:54:20 -68.97,-179.17 89.43 90.04 67
10 12/02/2013 14:58:06 -70.77, 134.76 87.30 12/02/2013 14:59:14 -70.65, 136.81 87.38 76.24 68
11 12/02/2013 15:48:48 69.92, -56.61 91.88 12/02/2013 15:48:52 69.94, -56.58 91.90 2.73 4
12 12/02/2013 16:39:41 -69.25, 111.62 88.77 12/02/2013 16:38:31 -69.34, 110.23 88.72 55.50 70
13 12/04/2013 20:32:57 69.97,-127.70 92.22 12/04/2013 20:33:09 69.96,-127.63 92.21 2.84 12
14 12/04/2013 21:23:55 -69.58, 40.13 88.16 12/04/2013 21:22:43 -69.63, 39.55 88.12 23.14 72
15 12/07/2013 01:17:05 69.98, 161.27 92.50 12/07/2013 01:17:26 69.96, 161.30 92.47 2.80 21
16 12/07/2013 02:08:07 -69.81, -31.24 87.67 12/07/2013 02:06:57 -69.79, -31.29 87.70 2.87 70




NCC Satellite Simultaneous Nadir Overpasses (SNOs) Prediction Service
